Вернуться в каталог

OMNI-L1

АктивенНаукаSSO
NORAD 52157·PAYLOAD·🇺🇸 United States

Запущен Apr 1, 2022 с Cape Canaveral Space Force Station

Loading…

Ближайшие Пролёты (ближайшие 24 часа)

TLE

СвежийSource: Space-Track

Эпоха: Sep 14, 2026, 04:20 UTC

1 52157U 22033A   26257.18121956  .00001256  00000-0  16094-3 0  9992
2 52157  97.8339 334.6182 0005174  10.4179 349.7141 14.83012333240640

Отслеживайте OMNI-L1 в реальном времени с AllMySat

Download on the App Store